Regional Weather Roundup
Issued by NWS

Home | Current Version | Previous Version | Text Only | Print | Product List | Glossary On
Versions: 1 2 3 4 5 6 7 8 9 10 11 12 13 14 15 16 17 18 19 20 21 22 23 24 25 26 27 28 29 30 31 32 33 34 35 36 37 38 39 40 41 42 43 44 45 46 47 48 49 50
000
ASUS43 KDMX 232108
RWRIA

WEATHER ROUNDUP FOR IOWA
NATIONAL WEATHER SERVICE DES MOINES IA
400 PM CDT SAT JUL 23 2016

NOTE: "FAIR" INDICATES FEW OR NO CLOUDS BELOW 12,000 FEET WITH NO
SIGNIFICANT WEATHER AND/OR OBSTRUCTIONS TO VISIBILITY.

* - THESE STATIONS ARE NOT NWS STATIONS...THUS NOT UNDER NWS
QUALITY CONTROL.  THEY ALSO DO NOT REPORT WEATHER SUCH
AS PRECIPITATION OR FOG.

IAZ001>003-012>014-020>022-031>034-043>046-232200-
   NORTHWEST IOWA

CITY           SKY/WX    TMP DP  RH WIND       PRES   REMARKS
CARROLL *      CLOUDY    88  77  70 S10G18    29.82S HX 100
CHEROKEE *     SUNNY     88  77  69 S15       29.79F HX  99
DENISON *      SUNNY     88  77  70 S10G17    29.79F HX 100
LE MARS *      SUNNY     91  77  62 S16       29.77F HX 105
SHELDON *      SUNNY     86  79  79 S13G21    29.77F HX  99
SIOUX CITY     SUNNY     93  77  59 S13       29.76F HX 107
SPENCER        PTSUNNY   86  74  67 S16       29.80F HX  94
STORM LAKE *     N/A     86  75  70 S15       29.82F HX  95
$$

IAZ055>058-069>071-079>083-090>094-232200-
   SOUTHWEST IOWA

CITY           SKY/WX    TMP DP  RH WIND       PRES   REMARKS
ATLANTIC *     MOSUNNY   90  79  70 S12G20    29.82F HX 105
CLARINDA *       N/A     88  81  79 MISG      29.86S HX 105
COUNCIL BLFS * SUNNY     90  77  66 S14       29.81F HX 102
CRESTON *      CLOUDY    88  81  79 S13G18    29.86F HX 105
HARLAN  *      SUNNY     88  79  74 S12G20    29.85F HX 102
LAMONI         CLOUDY    89  78  70 S10       29.87F HX 103
RED OAK *      PTSUNNY   90  79  70 S15       29.83F HX 105
SHENANDOAH *   CLOUDY    88  79  74 S12       29.84S HX 102
$$

IAZ047>049-059>061-072>074-084-232200-
   CENTRAL IOWA

CITY           SKY/WX    TMP DP  RH WIND       PRES   REMARKS
AMES           MOSUNNY   88  81  79 S9        29.83F HX 106
ANKENY *         N/A    N/A N/A N/A MISG        N/A
BOONE *        CLOUDY    88  79  74 S9G16     29.83S HX 102
CHARITON *       N/A    N/A N/A N/A MISG        N/A
DES MOINES     CLOUDY    91  80  70 S12       29.82F HX 109
GRINNELL*      CLOUDY    86  79  78 SE3       29.86S HX 100
KNOXVILLE *    CLOUDY    88  81  79 S6        29.83S HX 105
MARSHALLTOWN   CLOUDY    85  82  91 SE5       29.84F HX 102
NEWTON *       CLOUDY    86  82  89 S5        29.84S HX 105
PELLA *        CLOUDY    89  80  74 CALM      29.86R HX 105
PERRY *          N/A     88  82  82 S9        29.83F HX 107
$$

IAZ004>006-015-016-023>025-035-036-232200-
   NORTH CENTRAL IOWA

CITY           SKY/WX    TMP DP  RH WIND       PRES   REMARKS
ALGONA *       MOSUNNY   84  75  74 S20G28    29.81F HX  92
ESTHERVILLE    MOSUNNY   83  76  79 S18       29.81F HX  91
FORT DODGE *   MOSUNNY   88  79  74 S12G20    29.83S HX 102
MASON CITY     CLOUDY    76  74  93 SE10G17   29.87R
FOREST CITY *    N/A     79  75  89 E7        29.85R HX  82
IOWA FALLS *   CLOUDY    83  79  87 E3        29.87R HX  94
$$

IAZ007>011-017>019-026>030-037>042-050>054-066-232200-
   NORTHEAST IOWA

CITY           SKY/WX    TMP DP  RH WIND       PRES   REMARKS
CEDAR RAPIDS   CLOUDY    87  81  82 S10       29.86S HX 104
CHARLES CITY * CLOUDY    73  72  94 E13       29.90R
CLINTON *      CLOUDY    87  80  79 SE8       29.94R HX 103
DECORAH *      CLOUDY    70  70 100 E13G21    29.90F
DUBUQUE        CLOUDY    78  73  84 E8        29.93F HX  81
MONTICELLO *   CLOUDY    81  77  89 E13       29.88F HX  88
OELWEIN *      CLOUDY    72  70  94 SE21G26   29.92F FOG
WATERLOO       CLOUDY    73  69  87 E10       29.87S
$$

IAZ064-065-067-068-078-232200-
   EAST CENTRAL IOWA

CITY           SKY/WX    TMP DP  RH WIND       PRES   REMARKS
DAVENPORT      PTSUNNY   89  80  74 S8        29.92R HX 106
IOWA CITY      CLOUDY    89  80  74 SE10      29.87S HX 106
MT. PLEASANT * CLOUDY    95  82  66 S12       29.88S HX 118
MUSCATINE *    SUNNY     91  81  70 S10G21    29.89R HX 110
QUAD CITIES    CLOUDY    91  79  67 SE10      29.89F HX 107
$$

IAZ062-063-075>077-085>089-095>099-232200-
   SOUTHEAST IOWA

CITY           SKY/WX    TMP DP  RH WIND       PRES   REMARKS
BURLINGTON     MOSUNNY   90  81  74 S9        29.89F HX 109
FAIRFIELD *    CLOUDY    91  77  62 S15       29.87S HX 105
KEOKUK *       SUNNY     91  79  66 S12G18    29.88F HX 107
CENTERVILLE *    N/A     90  73  58 S8        29.89S HX  98
OTTUMWA        CLOUDY    89  77  67 S9        29.85F HX 101
WASHINGTON *   PTSUNNY   90  81  74 S13       29.89R HX 108
$$

ABBREVIATIONS USED IN REMARKS
   TC - TEMPERATURES IN CELSIUS
  WCI - WIND CHILL INDEX
   HX - HEAT INDEX
  VSB - VISIBILITY
$$




USA.gov is the U.S. government's official web portal to all federal, state and local government web resources and services.